Weather History for Saltillo, Mexico

Change the Weather History Date:

Monday, September 23, 2013

  Actual Average Record
Temperature  
Mean Temperature 64 °F -  
Max Temperature 79 °F 77 °F 91 °F (2006)
Min Temperature 50 °F 60 °F 49 °F (2012)
Growing Degree Days 14 (Base 50)    
Moisture  
Dew Point 56 °F    
Average Humidity 62    
Maximum Humidity 100    
Minimum Humidity 34    
Precipitation  
Precipitation 0.00 in - - ()
Sea Level Pressure  
Sea Level Pressure 29.96 in    
Wind  
Wind Speed 3 mph ()    
Max Wind Speed 17 mph    
Max Gust Speed -    
Visibility 8.3 miles    
Events Fog    
Averages and records for this station are not official NWS values.
T = Trace of Precipitation, MM = Missing Value Source: Averaged Metar Reports

Daily Weather History Graph

Daily Weather History Graph

Search for Another Location

Airport:

Trip Planner

Search our weather history database for the weather conditions in past years. The results will help you decide how hot, cold, wet, or windy it might be!

Date:

Astronomy

Sep. 23, 2013 Rise Set
Actual Time 7:32 AM CDT 7:38 PM CDT
Civil Twilight 7:09 AM CDT 8:01 PM CDT
Nautical Twilight 6:43 AM CDT 8:28 PM CDT
Astronomical Twilight 6:16 AM CDT 8:54 PM CDT
Moon 10:40 PM CDT (9/23) 11:26 AM CDT (9/23)
Length of Visible Light 12h 51m
Length of Day
12h 05m
Waning Gibbous, 81% of the Moon is Illuminated
Sep 23
Waning Gibbous
Sep 26
Last Quarter
Oct 4
New
Oct 11
First Quarter
Oct 18
Full

Hourly Weather History & Observations

Time (CDT) Temp. Heat Index Dew Point Humidity Pressure Visibility Wind Dir Wind Speed Gust Speed Precip Events Conditions
12:48 AM 52 °F - 52 °F 100% 29.79 in 3 mi South 2.2 mph - - Fog Light Fog
3:50 AM 50 °F - 50 °F 99% 29.80 in 2 mi South 2.2 mph - - Fog Light Fog
5:40 AM 60.8 °F - 53.6 °F 77% 29.96 in 2.0 mi Calm Calm - N/A   Clear
6:40 AM 57.2 °F - 53.6 °F 88% 29.97 in 3.0 mi Calm Calm - N/A   Clear
7:00 AM 52 °F - 52 °F 100% 29.83 in 3 mi South 4.5 mph - - Fog Light Fog
7:40 AM 59.0 °F - 57.2 °F 94% 29.98 in 4.0 mi South 5.8 mph - N/A   Haze
8:40 AM 60.8 °F - 57.2 °F 88% 30.00 in 10.0 mi Calm Calm - N/A   Clear
9:40 AM 68.0 °F - 60.8 °F 78% 30.02 in 10.0 mi Calm Calm - N/A   Clear
9:50 AM 64 °F - 54 °F 62% 29.89 in 11 mi South 6.7 mph - -   Clear
10:40 AM 73.4 °F - 62.6 °F 69% 30.03 in 10.0 mi Calm Calm - N/A   Clear
11:40 AM 75.2 °F - 64.4 °F 69% 30.02 in 10.0 mi Calm Calm - N/A   Clear
12:40 PM 78.8 °F - 60.8 °F 54% 30.02 in 10.0 mi Calm Calm - N/A   Clear
12:48 PM 73 °F - 57 °F 47% 29.87 in 11 mi South 4.5 mph - -   Partly Cloudy
1:40 PM 80.6 °F 81.1 °F 59.0 °F 48% 30.01 in 10.0 mi North 6.9 mph - N/A   Clear
2:40 PM 80.6 °F 81.1 °F 59.0 °F 48% 30.04 in 10.0 mi North 17.3 mph - N/A   Clear
3:40 PM 82.4 °F 82.5 °F 59.0 °F 45% 30.02 in 10.0 mi North 9.2 mph - N/A   Clear
3:50 PM 76 °F - 55 °F 37% 29.76 in 11 mi South 11.2 mph - -   Haze
4:40 PM 82.4 °F 82.5 °F 59.0 °F 45% 30.02 in 10.0 mi NNE 5.8 mph - N/A   Clear
5:40 PM 80.6 °F 81.1 °F 59.0 °F 48% 30.02 in 10.0 mi North 5.8 mph - N/A   Clear
6:40 PM 78.8 °F - 57.2 °F 47% 30.02 in 10.0 mi North 11.5 mph - N/A   Clear
6:48 PM 74 °F - 51 °F 34% 29.70 in 12 mi SSE 11.2 mph - -  
7:40 PM 75.2 °F - 55.4 °F 50% 30.04 in 10.0 mi NE 13.8 mph - N/A   Clear
8:40 PM 73.4 °F - 53.6 °F 50% 30.06 in 10.0 mi Calm Calm - N/A   Clear
9:40 PM 71.6 °F - 53.6 °F 53% 30.06 in 10.0 mi Calm Calm - N/A   Clear
9:48 PM 63 °F - 47 °F 44% 29.74 in 3 mi SSE 8.9 mph - -   Haze
10:40 PM 69.8 °F - 53.6 °F 56% 30.06 in 10.0 mi Calm Calm - N/A   Clear
11:40 PM 69.8 °F - 53.6 °F 56% 30.06 in 10.0 mi Calm Calm - N/A   Clear